THOR ABLESTAR DEB, 334

Orbit data source: Space-Track

THOR ABLESTAR DEB, 334 is space debris in LEO originally from a launch on Thu, 29 Jun 1961 UTC launched from the Air Force Eastern Test Range (AFETR). Debris objects in space refer to the collection of defunct objects orbiting the Earth. Examples of debris include non-operational satellites, rocket bodies, and fragments generated from explosions, collisions, or faulty payload assembly.

Loading next visibility...
Identifier
334, 1961-015DL
Orbit
LEO
Country
Flag of USUS
Related business
Manufacturer
Unknown
Mission
Spacecraft
Bus & Motor
Unknown
Mass
Unknown
Launch date (UTC)
1961-06-29 (65 years ago)
Launch vehicle
Unknown
Launch site
Air Force Eastern Test Range (AFETR)
Object type
Payload
Rocket body
Debris
Shape & HBR
Unknown shape, 0.1 m
Radar Cross Section
Small (<0.1 m²)

Expand to show TLE details & history
Last TLE update: 19 hours ago

TLE from 19 hours ago
0 THOR ABLESTAR DEB
1 00334U 61015DL  26127.82782961  .00000017  00000-0  71434-4 0  9995
2 00334  66.9238 282.1962 0074318 134.7914 225.9244 13.91741564290446
Epoch: 2026-05-07T19:52Z
TLE epoch observation values (Epoch: 2026-05-07T19:52:04.478Z)
Latitude
0.00007°
Longitude
118.5092°
Altitude
962.573 km
Speed
7.352 km/s
True Right ascension
18h 48m 47s
True Declination
0° 00' 00"
Sunlit
Object was in full shadow at epoch
Visualization orbit readout
Latitude
Unknown
Longitude
Unknown
Altitude
Unknown
Speed
Unknown
Apparent Right ascension
Unknown
Apparent Declination
Unknown
Sunlit
N/A
Visualization observer readout
Local Sidereal Time
23:17:31
Azimuth
Unknown
Elevation
Unknown
Doppler factor
Unknown
Orbital elements
Apogee altitude
975.158 km
Perigee altitude
866.667 km
Semi-major axis
7,299.049 km
Eccentricity
0.00743
Inclination
66.9238°
RAAN
282.1962°
Arg. of periapsis
134.7914°
True anomaly
225.31652°
Mean anomaly
225.9244°
Eccentric anomaly
225.62007°
Mean motion
3.48052 °/min
Orbital period
103.43 mins
BSTAR
0.000071434
Loading maneuver chart data...
Computing Atmospheric mass density...

Documentation

Showing up to 5 results
|